TimeEST,TemperatureF,Dew PointF,Humidity,Sea Level PressureIn,VisibilityMPH,Wind Direction,Wind SpeedMPH,Gust SpeedMPH,PrecipitationIn,Events,Conditions,WindDirDegrees,DateUTC
12:15 AM,32.9,28.9,85,29.82,3.0,SW,5.8,-,N/A,Snow,Light Snow,230,2014-01-18 05:15:00
12:35 AM,32.5,27.5,82,29.81,7.0,SW,5.8,-,N/A,Snow,Light Snow,230,2014-01-18 05:35:00
12:55 AM,32.9,26.4,77,29.81,5.0,West,8.1,-,N/A,Snow,Light Snow,270,2014-01-18 05:55:00
1:15 AM,32.4,25.5,76,29.81,4.0,West,10.4,-,N/A,Snow,Light Snow,270,2014-01-18 06:15:00
1:35 AM,32.0,25.5,77,29.81,5.0,WSW,9.2,17.3,N/A,Snow,Light Snow,250,2014-01-18 06:35:00
1:55 AM,31.8,21.2,65,29.81,10.0,WSW,12.7,18.4,N/A,,Overcast,250,2014-01-18 06:55:00
2:15 AM,31.1,22.1,69,29.82,7.0,WSW,12.7,-,N/A,Snow,Light Snow,240,2014-01-18 07:15:00
2:35 AM,30.0,22.8,75,29.82,3.0,WSW,11.5,17.3,N/A,Snow,Light Snow,240,2014-01-18 07:35:00
2:55 AM,29.3,23.7,80,29.83,1.2,WSW,11.5,-,N/A,Snow,Snow,250,2014-01-18 07:55:00
3:15 AM,28.9,24.6,84,29.82,1.8,WSW,5.8,-,N/A,Snow,Light Snow,240,2014-01-18 08:15:00
3:35 AM,28.9,24.4,83,29.82,2.0,SW,5.8,-,N/A,Snow,Light Snow,230,2014-01-18 08:35:00
3:55 AM,28.4,20.8,73,29.81,7.0,West,12.7,18.4,N/A,,Overcast,270,2014-01-18 08:55:00
4:15 AM,28.2,18.7,67,29.81,10.0,West,13.8,19.6,N/A,,Overcast,260,2014-01-18 09:15:00
4:35 AM,27.7,18.7,69,29.81,7.0,West,6.9,-,N/A,Snow,Light Snow,280,2014-01-18 09:35:00
4:55 AM,27.3,18.9,70,29.81,7.0,West,8.1,-,N/A,Snow,Light Snow,260,2014-01-18 09:55:00
5:15 AM,26.8,18.1,70,29.81,10.0,WSW,8.1,-,N/A,Snow,Light Snow,250,2014-01-18 10:15:00
5:35 AM,26.8,18.5,71,29.81,7.0,WSW,6.9,-,N/A,Snow,Light Snow,250,2014-01-18 10:35:00
5:53 AM,26.6,15.8,64,29.81,10.0,West,15.0,20.7,N/A,,Overcast,270,2014-01-18 10:53:00
6:35 AM,24.8,14.0,64,29.82,5.0,West,16.1,-,N/A,Snow,Light Snow,270,2014-01-18 11:35:00
6:53 AM,23.0,12.2,63,29.83,7.0,WNW,12.7,19.6,N/A,Snow,Light Snow,290,2014-01-18 11:53:00
7:53 AM,21.2,6.8,54,29.84,10.0,West,13.8,19.6,N/A,,Mostly Cloudy,280,2014-01-18 12:53:00
8:53 AM,19.4,6.8,58,29.87,8.0,West,13.8,-,N/A,,Mostly Cloudy,280,2014-01-18 13:53:00
9:53 AM,21.2,6.8,54,29.89,10.0,West,15.0,-,N/A,,Mostly Cloudy,270,2014-01-18 14:53:00
10:53 AM,21.2,6.8,54,29.90,10.0,West,13.8,-,N/A,,Scattered Clouds,280,2014-01-18 15:53:00
11:53 AM,21.2,5.0,50,29.88,10.0,West,13.8,-,N/A,,Scattered Clouds,280,2014-01-18 16:53:00
12:53 PM,21.2,3.2,46,29.86,10.0,WNW,13.8,-,N/A,,Scattered Clouds,290,2014-01-18 17:53:00
1:53 PM,21.2,3.2,46,29.85,10.0,WSW,11.5,-,N/A,,Mostly Cloudy,240,2014-01-18 18:53:00
3:53 PM,21.2,5.0,50,29.87,10.0,WSW,11.5,-,N/A,,Partly Cloudy,240,2014-01-18 20:53:00
4:50 PM,19.4,5.0,54,29.89,10.0,WSW,17.3,-,N/A,,Partly Cloudy,240,2014-01-18 21:50:00
4:53 PM,19.4,5.0,54,29.89,10.0,WSW,17.3,-,N/A,,Partly Cloudy,240,2014-01-18 21:53:00
5:08 PM,19.4,5.0,54,29.90,10.0,West,6.9,-,N/A,,Mostly Cloudy,270,2014-01-18 22:08:00
5:53 PM,19.4,5.0,54,29.91,10.0,West,6.9,-,N/A,,Mostly Cloudy,270,2014-01-18 22:53:00
6:58 PM,19.4,6.8,58,29.91,10.0,West,10.4,-,N/A,,Overcast,260,2014-01-18 23:58:00
7:58 PM,17.6,6.8,63,29.89,10.0,West,5.8,-,N/A,,Mostly Cloudy,280,2014-01-19 00:58:00
8:58 PM,17.6,6.8,63,29.90,10.0,WSW,8.1,-,N/A,,Mostly Cloudy,250,2014-01-19 01:58:00
9:55 PM,17.6,6.4,62,29.89,10.0,West,5.8,-,N/A,,Scattered Clouds,270,2014-01-19 02:55:00
10:15 PM,16.7,6.4,64,29.89,10.0,WSW,5.8,-,N/A,,Clear,250,2014-01-19 03:15:00
10:35 PM,15.4,6.8,69,29.89,10.0,SW,5.8,-,N/A,,Clear,230,2014-01-19 03:35:00
10:55 PM,16.5,6.8,66,29.89,10.0,SW,5.8,-,N/A,,Clear,220,2014-01-19 03:55:00
11:15 PM,16.5,6.8,66,29.89,10.0,South,4.6,-,N/A,,Clear,190,2014-01-19 04:15:00
11:35 PM,16.7,7.0,66,29.87,10.0,Calm,Calm,-,N/A,,Mostly Cloudy,0,2014-01-19 04:35:00
11:55 PM,16.7,6.8,65,29.86,10.0,South,3.5,-,N/A,,Overcast,180,2014-01-19 04:55:00